Home   Weather   Campeche   Past weeks

Flag for Mexico Past Weather in Campeche, Campeche, Mexico — Yesterday and Last 2 Weeks

Now
79 °F

Light rain. Mostly cloudy.


Feels Like: 83 °F
Forecast: N/A
Wind: 9 mph from South

Location: Aerop. Internacional Merida - Yuc

Current Time: Aug 30, 2016 at 3:49:52 PM

Latest Report: Aug 30, 2016 at 1:47 PM


Visibility: 5 mi

Pressure: 29.81 "Hg

Humidity: 94%

Dew Point: 77 °F

Location of CampecheLocation

Past Weather in Campeche — Graph

°F

Campeche Temperature Yesterday

Maximum temperature yesterday: 95 °F (at 2:45 PM)
Minimum temperature yesterday: 75 °F (at 3:51 AM)
Average temperature yesterday: 84 °F

High & Low Weather Summary for the Past Weeks

 TemperatureHumidityPressure
High99 °F (Aug 23, 2:45 PM)94% (Aug 16, 1:48 AM)30.12 "Hg (Aug 16, 1:48 AM)
Low75 °F (Aug 25, 6:48 AM)35% (Aug 23, 2:45 PM)29.76 "Hg (Aug 29, 4:45 PM)
Average84 °F77%29.95 "Hg
* Reported Aug 15 1:42 PM — Aug 30 1:47 PM, Campeche, Weather by CustomWeather, © 2016

Note: Actual official high and low records may vary slightly from our data, if they occured in-between our weather recording intervals... More about our weather records

Advertising

Campeche Weather History for the Previous 24 Hours

Scroll right to see more
 ConditionsComfort  
Time TempWeatherWind HumidityBarometerVisibility
1:47 PM
Tue, Aug 30
79 °FLight rain. Mostly cloudy.9 mph94%29.81 "Hg5 mi
12:47 PM79 °FLight rain. Mostly cloudy.8 mph94%29.84 "Hg4 mi
12:18 PM77 °FHeavy rain. Overcast.15 mph94%29.84 "Hg1 mi
10:44 AM90 °FPartly sunny.10 mph63%29.84 "Hg7 mi
8:46 AM84 °FPartly sunny.6 mph79%29.81 "Hg7 mi
6:50 AM77 °FPartly cloudy.6 mph94%29.79 "Hg6 mi
5:47 AM77 °FPassing clouds.No wind94%29.79 "Hg7 mi
4:45 AM77 °FPassing clouds.No wind94%29.79 "Hg7 mi
3:48 AM77 °FPassing clouds.No wind94%29.79 "Hg7 mi
2:46 AM79 °FPassing clouds.No wind89%29.80 "Hg7 mi
1:45 AM79 °FPassing clouds.No wind89%29.82 "Hg7 mi
12:45 AM81 °FPassing clouds.No wind84%29.84 "Hg7 mi
10:45 PM
Mon, Aug 29
82 °FPassing clouds.7 mph79%29.84 "Hg7 mi
9:45 PM84 °FPassing clouds.6 mph79%29.81 "Hg7 mi
8:48 PM84 °FPassing clouds.7 mph79%29.81 "Hg7 mi
7:45 PM86 °FBroken clouds.9 mph75%29.79 "Hg7 mi
5:45 PM91 °FBroken clouds.14 mph56%29.77 "Hg7 mi
4:45 PM93 °FPartly sunny.13 mph53%29.76 "Hg7 mi
3:45 PM93 °FPartly sunny.12 mph49%29.78 "Hg7 mi
Weather by CustomWeather, © 2016

See weather overviewHow to use our weather pages